Location: Fort Worth, Tx
(32.7431°N, 97.3695°W)
Time: 18:16:59
(UTC-05:00)

X-37B - Pass Details

Date: 04 December 2022
Orbit: 277 x 277 km, 45.0° (Epoch: 01 November)

Event Time Altitude Azimuth Distance (km) Brightness Sun altitude
Rises 19:56:57 0° 235° (SW) 1,899 5.4 -19.3°
Reaches altitude 10° 19:58:52 10° 236° (SW) 1,090 3.9 -19.7°
Enters shadow 20:00:20 32° 237° (WSW) 502 1.7 -20.0°
